Weather reports worldwide

Advertisment
Tholey, Germany (10706): temperature & dewpoint: 19.09.2018 12:00:00 - 25.09.2018 12:00:00 (CEST)Tholey, Germany (10706): temperature 5cm & temperature -5cm: 19.09.2018 12:00:00 - 25.09.2018 12:00:00 (CEST)Tholey, Germany (10706): temperature -20cm & temperature -100cm: 19.09.2018 12:00:00 - 25.09.2018 12:00:00 (CEST)Tholey, Germany (10706): wind speed & gusts: 19.09.2018 12:00:00 - 25.09.2018 12:00:00 (CEST)Tholey, Germany (10706): wind direction: 19.09.2018 12:00:00 - 25.09.2018 12:00:00 (CEST)Tholey, Germany (10706): reduced air pressure: 19.09.2018 12:00:00 - 25.09.2018 12:00:00 (CEST)Tholey, Germany (10706): visibility: 19.09.2018 12:00:00 - 25.09.2018 12:00:00 (CEST)Tholey, Germany (10706): sunshine duration: 19.09.2018 12:00:00 - 25.09.2018 12:00:00 (CEST)Tholey, Germany (10706): precipitation: 19.09.2018 12:00:00 - 25.09.2018 12:00:00 (CEST)
Date & Time tt [°C] td [°C] tt 5cm [°C] tt -5cm [°C] tt -20cm [°C] tt -100cm [°C] ff [km/h] ff [kn] fx [km/h] fx [kn] dd ppp [hPa] vv [km] sd [min] rr [mm]
25.09.2018 12:00:00 - - - - - - - - - - - - - - -
25.09.2018 11:00:00 9,5 3,3 12,5 12,2 12,2 17,5 24 13 38 21 E 1038,6 25 60 0,0
25.09.2018 10:00:00 8,7 4,3 11,4 10,2 12,2 17,6 11 6 22 12 E 1038,5 18 60 0,0
25.09.2018 09:00:00 7,0 4,4 7,6 7,8 12,4 17,6 9 5 24 13 E 1038,2 32 60 0,0
25.09.2018 08:00:00 5,4 3,5 4,4 6,4 12,6 17,6 18 10 27 15 NE 1038,2 21 16 0,0
25.09.2018 07:00:00 4,1 2,7 2,8 6,6 12,8 17,6 13 7 23 12 ENE 1038,4 18 0 0,0
25.09.2018 06:00:00 5,6 3,5 3,9 6,9 13,1 17,6 16 9 24 13 NE 1037,9 35 0 0,0
25.09.2018 05:00:00 6,1 3,6 4,0 7,1 13,3 17,6 15 8 18 10 NE 1037,9 48 0 0,0
25.09.2018 04:00:00 5,3 3,5 2,7 7,4 13,6 17,6 5 3 14 7 E 1038,2 47 0 0,0
25.09.2018 03:00:00 5,8 3,6 2,7 7,8 13,9 17,7 6 3 10 5 ENE 1038,1 70 0 0,0
25.09.2018 02:00:00 6,2 3,4 4,3 8,3 14,2 17,7 9 5 24 13 ENE 1037,8 70 0 0,0
25.09.2018 01:00:00 8,3 3,6 6,6 8,8 14,4 17,7 16 9 23 12 N 1037,3 70 0 0,0
25.09.2018 00:00:00 7,5 3,5 4,5 9,3 14,7 17,7 7 4 17 9 NE 1037,2 70 0 0,0
24.09.2018 23:00:00 8,8 3,5 6,2 10,1 15,0 17,7 9 5 24 13 NNE 1036,7 70 0 0,0
24.09.2018 22:00:00 9,8 3,3 8,6 11,0 15,2 17,7 12 6 23 12 N 1036,3 70 0 0,0
24.09.2018 21:00:00 10,2 4,3 9,3 12,0 15,4 17,7 9 5 17 9 N 1035,8 70 0 0,0
24.09.2018 20:00:00 10,9 4,1 10,4 13,0 15,5 17,8 12 7 20 11 N 1035,1 70 15 0,0
24.09.2018 19:00:00 11,8 3,2 11,3 14,2 15,5 17,8 14 7 24 13 WNW 1034,2 70 37 0,0
24.09.2018 18:00:00 12,4 3,6 12,6 15,9 15,4 17,8 13 7 23 13 W 1033,8 45 45 0,0
24.09.2018 17:00:00 12,7 3,6 14,2 16,7 15,2 17,8 16 9 26 14 WNW 1033,8 27 37 0,0
24.09.2018 16:00:00 12,8 3,0 14,5 17,1 14,9 17,8 6 4 18 10 W 1034,0 70 9 0,0
24.09.2018 15:00:00 12,3 4,1 14,2 18,2 14,5 17,8 9 5 22 12 N 1034,2 45 39 0,0
24.09.2018 14:00:00 12,8 4,0 17,2 17,4 14,1 17,8 11 6 24 13 NW 1034,4 45 39 0,0
24.09.2018 13:00:00 11,4 2,7 13,5 17,2 13,7 17,8 7 4 28 15 NNW 1034,7 43 53 0,0
24.09.2018 12:00:00 11,3 2,2 16,4 15,9 13,4 17,8 14 8 27 15 NNW 1034,5 41 60 0,0
24.09.2018 11:00:00 10,7 5,1 15,7 13,7 13,3 17,9 12 7 22 12 N 1034,3 36 60 0,0
24.09.2018 10:00:00 8,5 4,7 11,0 11,0 13,3 17,9 7 4 27 15 WNW 1034,3 46 60 0,0
24.09.2018 09:00:00 7,3 4,5 8,8 8,7 13,5 17,9 9 5 15 8 NW 1033,4 29 60 0,0
24.09.2018 08:00:00 5,7 4,6 4,6 7,5 13,8 17,9 6 4 19 11 WNW 1032,7 17 12 0,0
24.09.2018 07:00:00 6,7 4,5 5,4 7,8 14,0 17,9 14 8 22 12 WNW 1031,8 36 0 0,0
24.09.2018 06:00:00 7,0 4,7 5,3 8,1 14,3 17,9 12 6 23 12 NW 1030,5 45 0 0,0
24.09.2018 05:00:00 7,4 4,6 5,7 8,5 14,6 17,9 13 7 26 14 NNW 1029,7 69 0 0,0
24.09.2018 04:00:00 7,3 4,8 5,8 9,1 14,8 17,9 11 6 22 12 NW 1028,9 70 0 0,0
24.09.2018 03:00:00 7,5 4,8 6,0 9,8 15,1 18,0 9 5 19 11 W 1027,9 70 0 0,0
24.09.2018 02:00:00 7,9 5,2 7,6 10,4 15,3 18,0 5 3 20 11 WSW 1027,0 70 0 0,0
24.09.2018 01:00:00 8,1 5,0 7,6 10,7 15,6 18,0 5 3 27 14 W 1025,7 70 0 0,0
24.09.2018 00:00:00 8,5 4,9 8,2 11,0 15,8 18,0 14 8 30 16 N 1023,9 70 0 0,0
23.09.2018 23:00:00 8,8 5,7 7,9 11,8 16,0 18,0 17 9 37 20 N 1022,0 70 0 0,0
23.09.2018 22:00:00 9,8 6,8 9,5 12,6 16,2 18,0 10 6 31 17 N 1019,8 70 0 0,0
23.09.2018 21:00:00 10,4 7,7 9,5 13,3 16,4 18,0 10 6 33 18 NNW 1017,7 70 0 0,0
23.09.2018 20:00:00 10,8 8,3 10,4 13,8 16,6 18,0 10 5 50 27 N 1014,4 70 0 0,1
23.09.2018 19:00:00 12,2 10,2 11,6 14,9 16,7 18,1 18 10 48 26 NW 1011,6 61 0 0,5
23.09.2018 18:00:00 13,6 12,1 13,1 15,9 16,6 18,1 25 14 55 30 WNW 1008,9 70 0 2,0
23.09.2018 17:00:00 15,3 14,2 14,7 17,2 16,5 18,1 36 20 91 49 WNW 1007,8 2,2 0 12,8
23.09.2018 16:00:00 18,5 17,1 17,7 17,8 16,4 18,1 48 26 79 43 SW 1004,8 22 0 0,0
23.09.2018 15:00:00 18,4 17,1 18,0 17,8 16,2 18,1 47 25 71 38 WSW 1006,7 43 0 0,2
23.09.2018 14:00:00 18,0 17,4 17,9 17,5 16,0 18,1 40 21 64 34 WSW 1008,3 8 0 1,3
23.09.2018 13:00:00 17,5 17,2 17,7 17,1 15,8 18,1 35 19 59 32 WSW 1009,8 5 0 1,0
23.09.2018 12:00:00 17,0 16,7 17,1 16,5 15,7 18,1 39 21 58 31 WSW 1010,5 3,1 0 0,8
23.09.2018 11:00:00 16,7 16,4 16,8 16,0 15,6 18,1 36 20 56 31 WSW 1011,3 3,1 0 0,1
23.09.2018 10:00:00 16,0 15,7 16,1 15,3 15,5 18,2 35 19 54 29 WSW 1011,5 4,1 0 0,4
23.09.2018 09:00:00 15,6 15,4 15,5 14,4 15,5 18,2 29 16 44 24 WSW 1012,0 3,1 0 0,1
23.09.2018 08:00:00 14,1 13,9 14,0 13,5 15,5 18,2 21 12 33 18 WSW 1012,5 0,4 0 0,2
23.09.2018 07:00:00 12,7 12,5 12,7 13,0 15,5 18,2 18 10 27 14 WSW 1013,0 0,1 0 0,9
23.09.2018 06:00:00 11,7 11,5 11,7 12,8 15,6 18,2 13 7 25 14 WSW 1013,8 0,2 0 1,2
23.09.2018 05:00:00 11,1 10,8 11,2 12,6 15,7 18,2 14 7 22 12 SW 1014,8 1,9 0 1,0
23.09.2018 04:00:00 10,2 9,9 10,3 12,5 15,8 18,2 8 5 17 9 S 1016,1 1,2 0 0,5
23.09.2018 03:00:00 9,9 9,5 10,0 12,6 15,9 18,2 8 4 16 9 S 1017,5 2,4 0 0,5
23.09.2018 02:00:00 9,8 9,0 10,0 12,8 16,0 18,2 5 3 8 5 E 1018,3 1,9 0 0,3
23.09.2018 01:00:00 10,1 8,8 10,0 13,0 16,2 18,2 5 3 17 9 E 1019,0 6 0 0,0
23.09.2018 00:00:00 10,3 9,1 10,2 13,2 16,3 18,2 4 2 16 8 S 1019,8 17 0 0,1
22.09.2018 23:00:00 10,8 7,9 10,1 13,4 16,4 18,2 3 1 6 4 N 1020,4 36 0 0,2
22.09.2018 22:00:00 11,0 8,7 10,4 13,6 16,5 18,3 3 2 5 3 ENE 1020,5 43 0 0,0
22.09.2018 21:00:00 11,4 7,6 10,3 14,0 16,7 18,3 0 0 4 2 N 1020,4 43 0 0,2
22.09.2018 20:00:00 11,2 8,9 10,6 14,4 16,8 18,3 2 1 6 4 SE 1020,4 37 0 0,6
22.09.2018 19:00:00 13,0 6,1 10,9 15,1 16,8 18,3 4 2 21 11 W 1020,5 20 0 0,1
22.09.2018 18:00:00 13,6 5,9 11,3 16,3 16,7 18,3 16 9 32 18 W 1020,4 24 0 0,0
22.09.2018 17:00:00 14,7 4,9 14,9 17,6 16,5 18,3 21 12 35 19 W 1020,9 70 0 0,0
22.09.2018 16:00:00 15,1 4,9 16,8 18,6 16,2 18,3 18 10 38 20 W 1021,4 70 3 0,0
22.09.2018 15:00:00 15,1 5,0 18,1 19,5 15,8 18,3 24 13 44 24 WSW 1021,8 29 44 0,0
22.09.2018 14:00:00 14,4 5,1 17,1 18,7 15,5 18,3 26 14 39 21 WSW 1022,2 28 47 0,0
22.09.2018 13:00:00 14,1 6,8 18,0 16,7 15,3 18,3 19 10 37 20 WSW 1022,4 32 40 0,0
22.09.2018 12:00:00 12,1 6,9 14,4 15,5 15,1 18,3 16 9 27 14 WSW 1023,5 42 53 0,0
22.09.2018 11:00:00 10,5 5,9 13,2 13,2 15,0 18,3 17 9 29 15 WSW 1024,4 31 44 0,0
22.09.2018 10:00:00 9,1 5,6 10,7 11,4 15,1 18,3 11 6 16 8 WSW 1024,0 33 4 0,0
22.09.2018 09:00:00 7,5 5,0 8,1 9,8 15,3 18,3 9 5 14 8 W 1024,4 57 11 0,0
22.09.2018 08:00:00 6,9 4,4 6,2 9,0 15,5 18,3 12 7 16 8 W 1024,3 56 0 0,0
22.09.2018 07:00:00 7,2 4,4 6,0 9,2 15,7 18,3 11 6 18 10 W 1023,7 52 0 0,0
22.09.2018 06:00:00 7,4 4,2 6,5 9,2 16,0 18,3 12 7 18 10 W 1023,0 59 0 0,0
22.09.2018 05:00:00 7,6 4,3 6,4 9,4 16,3 18,3 13 7 21 11 W 1023,2 70 0 0,0
22.09.2018 04:00:00 7,9 4,4 6,8 9,7 16,5 18,3 16 9 23 12 W 1022,8 70 0 0,0
22.09.2018 03:00:00 8,3 4,5 7,1 9,9 16,8 18,3 18 10 25 13 W 1022,6 70 0 0,0
22.09.2018 02:00:00 8,8 4,7 7,5 10,4 17,1 18,3 18 10 32 17 W 1021,9 70 0 0,0
22.09.2018 01:00:00 9,6 4,6 8,0 10,9 17,4 18,3 16 9 24 13 W 1021,4 70 0 0,0
22.09.2018 00:00:00 10,4 4,7 9,2 11,6 17,7 18,3 18 10 26 14 W 1020,9 70 0 0,0
21.09.2018 23:00:00 10,5 5,2 9,3 12,0 18,0 18,3 11 6 26 14 WSW 1020,4 70 0 0,0
21.09.2018 22:00:00 10,6 5,6 9,5 12,2 18,4 18,3 18 10 25 13 W 1019,4 70 0 0,0
21.09.2018 21:00:00 11,6 5,5 9,9 12,8 18,7 18,2 15 8 28 15 W 1018,4 70 0 0,0
21.09.2018 20:00:00 12,2 6,0 10,8 13,9 18,9 18,2 17 9 32 17 W 1017,0 70 0 0,0
21.09.2018 19:00:00 13,0 6,5 12,1 15,3 19,1 18,2 21 11 41 22 W 1015,5 70 7 0,0
21.09.2018 18:00:00 13,7 11,3 13,9 16,8 19,2 18,2 18 10 27 14 WSW 1014,4 41 15 0,0
21.09.2018 17:00:00 12,3 11,4 13,0 16,6 19,4 18,2 17 9 31 17 WSW 1013,8 19 0 0,0
21.09.2018 16:00:00 11,5 11,0 12,3 16,2 19,6 18,2 13 7 39 21 W 1013,3 24 0 1,3
21.09.2018 15:00:00 11,4 9,7 11,2 16,9 19,8 18,2 27 15 64 35 W 1012,5 59 0 1,6
21.09.2018 14:00:00 16,0 14,6 15,5 19,0 19,7 18,2 30 16 58 32 WSW 1010,4 7 0 0,6
21.09.2018 13:00:00 18,0 12,7 16,3 20,4 19,6 18,2 42 23 59 32 WSW 1009,8 13 0 0,0
21.09.2018 12:00:00 20,0 11,0 21,7 20,8 19,5 18,2 37 20 63 34 WSW 1009,1 27 7 0,0
21.09.2018 11:00:00 19,4 10,9 20,0 19,8 19,5 18,2 35 19 49 27 WSW 1009,8 28 9 0,0
21.09.2018 10:00:00 18,6 12,8 19,9 18,9 19,5 18,2 24 13 34 18 WSW 1009,6 24 10 0,0
21.09.2018 09:00:00 16,9 12,7 17,3 17,6 19,7 18,2 15 8 21 12 WSW 1010,2 23 2 0,0
21.09.2018 08:00:00 17,3 12,4 16,7 16,8 19,9 18,2 10 5 14 8 SW 1009,7 26 0 0,0
21.09.2018 07:00:00 17,0 12,3 14,4 17,1 20,0 18,2 7 4 17 9 WSW 1009,9 26 0 0,0
21.09.2018 06:00:00 17,6 12,3 16,1 17,3 20,2 18,2 11 6 16 9 WSW 1010,3 28 0 0,0
21.09.2018 05:00:00 17,9 12,4 16,0 17,3 20,5 18,2 11 6 14 8 W 1011,0 24 0 0,0
21.09.2018 04:00:00 18,0 12,5 14,4 17,6 20,7 18,2 5 3 14 8 W 1011,5 32 0 0,0
21.09.2018 03:00:00 18,5 12,6 15,6 18,1 20,9 18,2 8 4 15 8 WSW 1012,1 32 0 0,0
21.09.2018 02:00:00 19,8 12,7 17,3 18,6 21,2 18,2 6 3 11 6 SW 1012,3 34 0 0,0
21.09.2018 01:00:00 19,4 13,0 17,2 19,1 21,4 18,2 8 5 16 8 SSW 1012,8 34 0 0,0
21.09.2018 00:00:00 20,1 13,2 18,0 19,5 21,7 18,2 10 5 17 9 SSW 1013,3 34 0 0,0
20.09.2018 23:00:00 20,1 13,0 17,7 20,0 22,0 18,2 8 4 12 7 S 1013,9 38 0 0,0
20.09.2018 22:00:00 20,7 12,7 17,5 20,8 22,2 18,1 7 4 11 6 SSW 1014,3 45 0 0,0
20.09.2018 21:00:00 21,3 12,1 17,2 21,9 22,4 18,1 7 4 11 6 SSW 1014,6 39 0 0,0
20.09.2018 20:00:00 22,3 11,9 19,4 23,6 22,5 18,1 8 4 17 9 WSW 1014,8 35 7 0,0
20.09.2018 19:00:00 23,7 11,3 23,0 25,7 22,4 18,1 13 7 25 13 SW 1015,0 47 60 0,0
20.09.2018 18:00:00 24,5 11,1 25,7 27,7 22,1 18,1 20 11 30 16 WSW 1015,5 32 60 0,0
20.09.2018 17:00:00 24,6 11,2 27,4 29,2 21,7 18,1 18 10 35 19 WSW 1016,1 17 60 0,0
20.09.2018 16:00:00 24,8 10,9 29,4 29,6 21,2 18,1 17 9 35 19 WSW 1016,7 19 60 0,0
20.09.2018 15:00:00 24,9 11,2 30,1 29,5 20,7 18,1 20 11 33 18 SW 1017,2 22 60 0,0
20.09.2018 14:00:00 23,4 11,5 28,2 28,6 20,2 18,1 21 11 35 19 W 1018,1 22 60 0,0
20.09.2018 13:00:00 22,0 12,0 27,5 27,1 19,7 18,1 21 12 33 18 W 1018,9 11 60 0,0
20.09.2018 12:00:00 21,7 12,5 27,4 24,9 19,4 18,1 18 10 24 13 WSW 1019,3 20 60 0,0
20.09.2018 11:00:00 19,5 12,7 24,2 22,2 19,3 18,1 12 7 19 10 WSW 1020,1 24 60 0,0
20.09.2018 10:00:00 17,5 12,9 20,9 19,3 19,3 18,1 7 4 9 5 WSW 1020,1 26 60 0,0
20.09.2018 09:00:00 16,1 12,9 17,4 16,8 19,5 18,1 7 4 10 5 W 1020,3 10 56 0,0
20.09.2018 08:00:00 15,4 13,3 11,1 15,4 19,8 18,1 3 2 4 2 W 1020,2 15 0 0,0
20.09.2018 07:00:00 14,4 13,4 11,1 15,7 20,1 18,1 4 2 5 3 E 1020,3 13 0 0,0
20.09.2018 06:00:00 14,9 13,5 11,0 16,2 20,3 18,1 4 2 5 3 WSW 1020,2 15 0 0,0
20.09.2018 05:00:00 16,0 13,6 11,9 16,8 20,6 18,1 4 2 6 3 WSW 1020,0 21 0 0,0
20.09.2018 04:00:00 17,2 13,3 13,0 17,3 20,9 18,1 6 3 7 4 W 1019,6 24 0 0,0
20.09.2018 03:00:00 17,3 13,5 13,5 17,8 21,2 18,0 4 2 8 4 WSW 1019,7 22 0 0,0
20.09.2018 02:00:00 17,9 13,9 13,9 18,4 21,5 18,0 7 4 8 4 W 1019,9 27 0 0,0
20.09.2018 01:00:00 18,2 14,1 14,7 19,1 21,7 18,0 6 4 9 5 W 1020,1 27 0 0,0
20.09.2018 00:00:00 19,4 14,1 15,2 19,9 22,0 18,0 4 2 6 3 WSW 1019,7 31 0 0,0
19.09.2018 23:00:00 19,8 14,2 16,2 20,8 22,3 18,0 5 3 10 6 WSW 1019,5 33 0 0,0
19.09.2018 22:00:00 21,3 14,3 17,2 21,7 22,5 18,0 6 4 11 6 W 1018,9 33 0 0,0
19.09.2018 21:00:00 22,0 14,1 18,9 22,9 22,7 18,0 8 4 16 9 W 1018,6 39 0 0,0
19.09.2018 20:00:00 23,3 14,0 21,6 24,5 22,8 18,0 12 7 23 12 W 1018,2 39 24 0,0
19.09.2018 19:00:00 25,0 13,7 24,3 26,3 22,7 18,0 19 11 35 19 W 1017,6 52 60 0,0
19.09.2018 18:00:00 26,0 13,4 27,2 28,0 22,4 18,0 23 13 38 20 WSW 1017,3 43 50 0,0
19.09.2018 17:00:00 26,4 13,2 29,0 29,4 22,1 18,0 19 11 37 20 W 1017,4 31 51 0,0
19.09.2018 16:00:00 26,6 12,7 30,7 30,3 21,6 18,0 29 16 41 22 SW 1017,6 25 49 0,0
19.09.2018 15:00:00 26,1 12,3 30,1 30,7 21,0 18,0 26 14 40 21 WSW 1018,0 31 59 0,0
19.09.2018 14:00:00 25,7 13,2 31,0 29,8 20,5 18,0 19 11 31 17 WSW 1018,3 26 60 0,0
19.09.2018 13:00:00 24,4 14,0 30,1 28,2 20,0 18,0 16 9 27 15 SW 1018,9 24 60 0,0
19.09.2018 12:00:00 22,6 13,9 28,3 25,9 19,7 18,0 15 8 23 13 WSW 1019,7 25 60 0,0

tt = temperature
td = dewpoint
tt 5cm = temperature 5cm
tt -5cm = temperature -5cm
tt -20cm = temperature -20cm
tt -100cm = temperature -100cm
ff = wind speed
fx = gusts
dd = wind direction
ppp = reduced air pressure
vv = visibility
sd = sunshine duration
rr = precipitation

Next stations